DW2004 Weather Reports


Display with metric or nautical units.
time (UTC)temp
F
wind
direction
speed
MPH
gust
MPH
rain 1hr
in
rain 24hr
in
rain mn
in
humidity
%
barometer
mb
20260504110459 63 190 1.0 6.0 0.00 0.00 0.00 72 1012.8
20260504100500 65 220 1.0 9.0 0.00 0.00 0.00 66 1013.2
20260504081958 67 163 2.0 10.0 0.00 0.00 0.00 58 1013.5
20260504081505 67 153 3.0 10.0 0.00 0.00 0.00 58 1013.5
20260504080958 67 210 2.0 9.0 0.00 0.00 0.00 56 1013.7
20260504080458 67 247 3.0 9.0 0.00 0.00 0.00 56 1013.8
20260504050504 69 209 0.0 4.0 0.00 0.00 0.00 53 1015.7
20260504050012 69 209 1.0 4.0 0.00 0.00 0.00 53 1015.7
20260504045503 69 209 0.0 3.0 0.00 0.00 0.00 53 1015.7
20260504045003 69 209 0.0 3.0 0.00 0.00 0.00 52 1015.8
20260504044507 69 209 0.0 2.0 0.00 0.00 0.00 52 1015.8
20260504043503 70 209 0.0 4.0 0.00 0.00 0.00 51 1015.9
20260504042503 70 208 0.0 7.0 0.00 0.00 0.00 51 1016.0
20260504042003 70 208 1.0 8.0 0.00 0.00 0.00 51 1015.9
20260504041507 70 198 1.0 4.0 0.00 0.00 0.00 51 1016.0
20260504041004 70 198 1.0 5.0 0.00 0.00 0.00 50 1016.0
20260504040008 71 194 1.0 7.0 0.00 0.00 0.00 50 1015.9
20260504035504 71 161 1.0 7.0 0.00 0.00 0.00 50 1015.9
20260504035003 71 192 1.0 6.0 0.00 0.00 0.00 50 1015.9
20260504034506 71 192 1.0 6.0 0.00 0.00 0.00 49 1015.9
20260504034003 71 204 0.0 4.0 0.00 0.00 0.00 49 1015.9
20260504033503 71 204 1.0 4.0 0.00 0.00 0.00 49 1015.9
20260504033007 71 203 0.0 5.0 0.00 0.00 0.00 48 1015.8
20260504032002 72 198 1.0 5.0 0.00 0.00 0.00 47 1015.9
20260504031521 72 187 1.0 6.0 0.00 0.00 0.00 46 1015.8
20260504031003 72 186 0.0 6.0 0.00 0.00 0.00 45 1015.8
20260504030502 72 177 2.0 5.0 0.00 0.00 0.00 45 1015.8
20260504030010 72 205 1.0 5.0 0.00 0.00 0.00 44 1015.7
20260504025503 72 196 1.0 6.0 0.00 0.00 0.00 43 1015.7
20260504025003 73 195 1.0 6.0 0.00 0.00 0.00 43 1015.5
20260504024002 73 176 1.0 10.0 0.00 0.00 0.00 41 1015.6
20260504023503 74 184 2.0 10.0 0.00 0.00 0.00 41 1015.6
20260504023008 74 175 1.0 5.0 0.00 0.00 0.00 41 1015.6
20260504022504 74 171 1.0 7.0 0.00 0.00 0.00 40 1015.7
20260504022003 74 232 1.0 10.0 0.00 0.00 0.00 40 1015.6
20260504021506 74 187 3.0 9.0 0.00 0.00 0.00 40 1015.6
20260504021003 75 207 1.0 9.0 0.00 0.00 0.00 40 1015.5
20260504020503 75 186 1.0 9.0 0.00 0.00 0.00 40 1015.6
20260504020010 75 210 1.0 11.0 0.00 0.00 0.00 40 1015.6
20260504015504 75 255 5.0 11.0 0.00 0.00 0.00 39 1015.5
20260504015003 75 192 3.0 8.0 0.00 0.00 0.00 39 1015.4
20260504014506 75 180 2.0 9.0 0.00 0.00 0.00 39 1015.4
20260504013504 75 197 1.0 6.0 0.00 0.00 0.00 38 1015.3
20260504012504 76 161 2.0 7.0 0.00 0.00 0.00 38 1015.2
20260504012003 76 240 1.0 7.0 0.00 0.00 0.00 38 1015.2
20260504011507 76 211 1.0 6.0 0.00 0.00 0.00 38 1015.2
20260504011002 76 153 2.0 8.0 0.00 0.00 0.00 38 1015.1
20260504010008 76 215 1.0 6.0 0.00 0.00 0.00 38 1015.1
20260504005502 77 183 1.0 8.0 0.00 0.00 0.00 38 1015.0
20260504005003 77 190 1.0 10.0 0.00 0.00 0.00 37 1014.9
20260504004507 77 183 3.0 10.0 0.00 0.00 0.00 36 1015.0
20260504004003 78 184 2.0 10.0 0.00 0.00 0.00 36 1015.0
20260504003006 78 196 3.0 9.0 0.00 0.00 0.00 35 1015.1
20260504002503 79 136 3.0 9.0 0.00 0.00 0.00 35 1015.0
20260504002003 79 225 3.0 8.0 0.00 0.00 0.00 35 1015.1
20260504001507 79 244 3.0 11.0 0.00 0.00 0.00 35 1015.1
20260504000502 80 219 2.0 11.0 0.00 0.00 0.00 35 1015.2
20260504000012 80 218 1.0 10.0 0.00 0.00 0.00 35 1015.2
20260503235502 80 180 2.0 10.0 0.00 0.00 0.00 33 1015.2
20260503235018 80 233 3.0 13.0 0.00 0.00 0.00 34 1015.3
20260503234504 80 221 4.0 12.0 0.00 0.00 0.00 33 1015.4
20260503234001 81 222 3.0 13.0 0.00 0.00 0.00 33 1015.4
20260503233501 81 208 2.0 13.0 0.00 0.00 0.00 34 1015.4
20260503233005 81 163 2.0 9.0 0.00 0.00 0.00 34 1015.3
20260503232502 81 227 2.0 9.0 0.00 0.00 0.00 34 1015.5
20260503232002 80 180 3.0 10.0 0.00 0.00 0.00 33 1015.5
20260503231505 80 226 2.0 12.0 0.00 0.00 0.00 34 1015.5
20260503231001 81 170 3.0 12.0 0.00 0.00 0.00 33 1015.5
20260503230501 81 192 2.0 8.0 0.00 0.00 0.00 34 1015.6
20260503230008 82 216 1.0 10.0 0.00 0.00 0.00 34 1015.6
20260503225502 82 211 3.0 13.0 0.00 0.00 0.00 33 1015.6
20260503225001 82 145 1.0 13.0 0.00 0.00 0.00 34 1015.6
20260503224507 82 167 4.0 14.0 0.00 0.00 0.00 31 1015.7
20260503224001 82 182 4.0 12.0 0.00 0.00 0.00 31 1015.7
20260503223502 82 238 3.0 11.0 0.00 0.00 0.00 32 1015.8
20260503223005 82 192 5.0 11.0 0.00 0.00 0.00 31 1015.8
20260503222002 82 260 5.0 14.0 0.00 0.00 0.00 31 1015.9
20260503221001 83 340 2.0 9.0 0.00 0.00 0.00 31 1016.0
20260503220507 83 260 2.0 14.0 0.00 0.00 0.00 33 1016.1
20260503220008 83 189 5.0 16.0 0.00 0.00 0.00 30 1016.1
20260503215502 83 177 2.0 13.0 0.00 0.00 0.00 31 1016.1
20260503215001 83 196 4.0 12.0 0.00 0.00 0.00 30 1016.2
20260503214505 83 257 4.0 12.0 0.00 0.00 0.00 32 1016.3
20260503214002 83 200 4.0 14.0 0.00 0.00 0.00 30 1016.3
20260503213502 83 217 2.0 10.0 0.00 0.00 0.00 31 1016.4
20260503213012 83 213 4.0 10.0 0.00 0.00 0.00 30 1016.5
20260503212502 83 257 2.0 8.0 0.00 0.00 0.00 32 1016.6
20260503212004 83 225 1.0 14.0 0.00 0.00 0.00 32 1016.6
20260503211505 83 229 5.0 14.0 0.00 0.00 0.00 30 1016.8
20260503211003 83 271 3.0 10.0 0.00 0.00 0.00 33 1016.7
20260503210007 82 182 4.0 13.0 0.00 0.00 0.00 31 1017.1
20260503205506 82 240 3.0 10.0 0.00 0.00 0.00 35 1017.1
20260503205005 82 213 4.0 11.0 0.00 0.00 0.00 31 1017.3
20260503203502 82 236 3.0 10.0 0.00 0.00 0.00 32 1017.5
20260503203005 82 182 6.0 10.0 0.00 0.00 0.00 32 1017.7
20260503202501 83 175 1.0 9.0 0.00 0.00 0.00 35 1017.7
20260503202002 82 170 3.0 11.0 0.00 0.00 0.00 34 1017.8
20260503201001 83 178 1.0 9.0 0.00 0.00 0.00 33 1018.0
20260503200502 83 178 2.0 10.0 0.00 0.00 0.00 34 1018.1
20260503200007 82 184 3.0 10.0 0.00 0.00 0.00 34 1018.2
20260503195504 82 260 4.0 10.0 0.00 0.00 0.00 33 1018.3
20260503195002 82 217 3.0 11.0 0.00 0.00 0.00 34 1018.3
20260503194508 82 253 2.0 11.0 0.00 0.00 0.00 33 1018.3
20260503193501 81 253 0.0 15.0 0.00 0.00 0.00 35 1018.5
20260503193009 81 257 5.0 15.0 0.00 0.00 0.00 32 1018.5
20260503192501 81 229 3.0 12.0 0.00 0.00 0.00 35 1018.7
20260503192003 81 205 3.0 12.0 0.00 0.00 0.00 35 1018.9
20260503191505 81 214 6.0 12.0 0.00 0.00 0.00 35 1018.9
20260503191001 81 223 2.0 11.0 0.00 0.00 0.00 34 1018.9
20260503190501 81 162 2.0 11.0 0.00 0.00 0.00 35 1018.9
20260503190010 81 215 1.0 10.0 0.00 0.00 0.00 35 1019.1
20260503185001 80 233 4.0 14.0 0.00 0.00 0.00 36 1019.2
20260503184503 81 263 4.0 11.0 0.00 0.00 0.00 35 1019.3
20260503184002 81 232 2.0 12.0 0.00 0.00 0.00 36 1019.4
20260503183500 80 259 3.0 12.0 0.00 0.00 0.00 35 1019.5
20260503183003 80 230 5.0 12.0 0.00 0.00 0.00 37 1019.6
20260503182000 80 219 6.0 16.0 0.00 0.00 0.00 37 1019.7
20260503181505 81 187 2.0 9.0 0.00 0.00 0.00 40 1019.8
20260503181000 80 277 1.0 13.0 0.00 0.00 0.00 43 1019.8
20260503180505 80 207 4.0 13.0 0.00 0.00 0.00 39 1020.0
20260503180006 80 167 3.0 10.0 0.00 0.00 0.00 40 1020.1
20260503175500 80 238 2.0 10.0 0.00 0.00 0.00 42 1020.1
20260503175000 80 225 2.0 9.0 0.00 0.00 0.00 43 1020.4
20260503174504 79 217 2.0 9.0 0.00 0.00 0.00 43 1020.4
20260503174001 80 257 2.0 8.0 0.00 0.00 0.00 44 1020.4
20260503173500 79 215 2.0 11.0 0.00 0.00 0.00 43 1020.5
20260503173005 79 250 2.0 11.0 0.00 0.00 0.00 43 1020.5
20260503172500 78 253 4.0 11.0 0.00 0.00 0.00 42 1020.5
20260503172000 78 236 3.0 11.0 0.00 0.00 0.00 42 1020.7
20260503171504 78 206 3.0 12.0 0.00 0.00 0.00 44 1020.8
20260503170500 78 257 2.0 16.0 0.00 0.00 0.00 46 1020.9
20260503151003 71 202 4.0 10.0 0.00 0.00 0.00 54 1021.4
20260503150500 71 236 3.0 10.0 0.00 0.00 0.00 53 1021.3
20260503130959 61 214 0.0 5.0 0.00 0.00 0.00 69 1021.1
20260503130459 61 214 1.0 5.0 0.00 0.00 0.00 69 1021.1